Weather Roundup
Issued by NWS Corpus Christi, TX

Home | Current Version | Previous Version | Text Only | Print | Product List | Glossary On
Versions: 1 2 3 4 5 6 7 8 9 10 11 12 13 14 15 16 17 18 19 20 21 22 23 24 25 26 27 28 29 30 31 32 33 34 35 36 37 38 39 40 41 42 43 44 45 46 47 48 49 50
000
ASUS44 KCRP 130310
HRRCRP

SOUTH TEXAS REGIONAL WEATHER ROUNDUP
NATIONAL WEATHER SERVICE CORPUS CHRISTI TX
900 PM CST FRI FEB 12 2016


TXZ229>244-130400-
...CORPUS CHRISTI AREA OBSERVATIONS...

CITY           SKY/WX    TMP DP  RH WIND       PRES   REMARKS
CORPUS CHRISTI PTCLDY    63  56  78 SE12      30.24R
NAS CORPUS CHR PTCLDY    63  61  93 SE12      30.24R
ROCKPORT       CLEAR     63  59  87 SE7       30.24R
KINGSVILLE NAS PTCLDY    63  60  90 SE8       30.23R
ALICE          PTCLDY    61  55  81 SE7       30.23R
FALFURRIAS     CLEAR     66  58  76 SE6       30.22R
$$

...VICTORIA AREA OBSERVATIONS...

CITY           SKY/WX    TMP DP  RH WIND       PRES   REMARKS
VICTORIA       CLEAR     57  56  96 SE6       30.25R
BEEVILLE       FAIR      61  58  91 SE6       30.23R
PLEASANTON     NOT AVBL
SAN ANTONIO    CLEAR     66  42  41 E6        30.25R
$$

...LAREDO AREA OBSERVATIONS...

CITY           SKY/WX    TMP DP  RH WIND       PRES   REMARKS
LAREDO         CLEAR     69  41  36 E7        30.19R
COTULLA        CLEAR     69  42  37 E8        30.21R
DEL RIO        CLEAR     69  32  25 E8        30.19R
MCALLEN        PTCLDY    67  58  72 SE10      30.23R
HEBBRONVILLE   NOT AVBL
$$

...OTHER TEXAS OBSERVATIONS...

CITY           SKY/WX    TMP DP  RH WIND       PRES   REMARKS
BROWNSVILLE    PTCLDY    60  59  96 NE3       30.25R
HOUSTON        CLEAR     61  54  77 NE5       30.26R
COL. STATION   CLEAR     67  48  50 NE9       30.27R
AUSTIN         CLEAR     56  44  64 N12       30.27R
WACO           CLEAR     52  35  52 N7        30.30R
FORT WORTH     CLEAR     57  35  43 N5        30.32R
WICHITA FALLS  CLEAR     45  36  70 N8        30.36R
LUBBOCK        CLEAR     48  29  47 E10       30.32S
EL PASO        PTCLDY    61  17  18 NW5       30.24S
$$

...MARINE OBSERVATIONS...

STATION/POSITION TIME  SKY/WX   TEMP    WIND        PRES    VSBY  WAVE   SWELL
                                AIR SEA DIR/SP/G                  HT/PER HT/PER
                 (UTC)          (F)     (DEG/KT/KT) (MB)    (MI)  (FT/S) (FT/S)
PORT ARANSAS     0300            64 65  130/ 11/ 12 1024.8R
BUOY 90 E PORT A 0250            68 67  150/  4/  4 1025.0R         2/ 6   2/ 6
BUOY 45 SE BAFFI 0250            67 65  160/ 10/ 10 1024.0R         2/ 6   2/ 6
BUOY 200 E PT IS 0250                                 N/A           2/ 5   2/ 5
BUOY 15 E GALVES 0250            62 61  200/  6/  6 1024.8R         2/ 6   2/ 6
$$



USA.gov is the U.S. government's official web portal to all federal, state and local government web resources and services.